Change the Weather History Date:

Monday, January 28, 2013

  Actual Average Record
Temperature  
Mean Temperature 32 °F -  
Max Temperature 37 °F 49 °F 57 °F (2009)
Min Temperature 27 °F 35 °F 15 °F (2006)
Degree Days  
Heating Degree Days 33    
Moisture  
Dew Point 29 °F    
Average Humidity 85    
Maximum Humidity 87    
Minimum Humidity 77    
Precipitation  
Precipitation 0.00 in 0.08 in - ()
Sea Level Pressure  
Sea Level Pressure 30.03 in    
Wind  
Wind Speed - ()    
Max Wind Speed -    
Max Gust Speed -    
Visibility 6.0 miles    
Events      
Averages and records for this station are not official NWS values.
T = Trace of Precipitation, MM = Missing Value Source: Averaged Metar Reports

Daily Weather History Graph

Daily Weather History Graph

Search for Another Location

Airport or City:

Trip Planner

Search our weather history database for the weather conditions in past years. The results will help you decide how hot, cold, wet, or windy it might be!

Date:

Astronomy

Jan. 28, 2013 Rise Set
Actual Time 7:30 AM EET 5:28 PM EET
Civil Twilight 7:00 AM EET 5:57 PM EET
Nautical Twilight 6:27 AM EET 6:31 PM EET
Astronomical Twilight 5:55 AM EET 7:03 PM EET
Moon 7:04 PM EET (1/28) 7:44 AM EET (1/28)
Length of Visible Light 10h 57m
Length of Day
9h 58m
Full, 98% of the Moon is Illuminated
Jan 28
Full
Feb 3
Last Quarter
Feb 10
New
Feb 17
First Quarter
Feb 25
Full

Hourly Weather History & Observations

Time (EET) Temp. Dew Point Humidity Pressure Visibility Wind Dir Wind Speed Gust Speed Precip Events Conditions
12:20 AM 28.4 °F 24.8 °F 86% 30.04 in - North - - N/A   Overcast
12:50 AM 28.4 °F 24.8 °F 86% 30.04 in - North - - N/A   Mostly Cloudy
1:20 AM 28.4 °F 24.8 °F 86% 30.04 in - North - - N/A   Scattered Clouds
1:50 AM 28.4 °F 24.8 °F 86% 30.04 in - North - - N/A   Scattered Clouds
2:00 AM 28 °F 24 °F 78% 30.05 in 6 mi Calm Calm - -   Scattered Clouds
2:20 AM 28.4 °F 24.8 °F 86% 30.04 in - North - - N/A   Scattered Clouds
2:50 AM 28.4 °F 23.0 °F 80% 30.04 in - North - - N/A   Scattered Clouds
3:50 AM 28.4 °F 23.0 °F 80% 30.04 in - North - - N/A   Mostly Cloudy
4:20 AM 28.4 °F 24.8 °F 86% 30.04 in - North - - N/A   Mostly Cloudy
4:50 AM 28.4 °F 24.8 °F 86% 30.04 in - North - - N/A   Mostly Cloudy
5:50 AM 28.4 °F 24.8 °F 86% 30.04 in - North - - N/A   Mostly Cloudy
6:20 AM 28.4 °F 24.8 °F 86% 30.04 in - North - - N/A   Mostly Cloudy
6:50 AM 28.4 °F 24.8 °F 86% 30.01 in - North - - N/A   Mostly Cloudy
7:50 AM 30.2 °F 26.6 °F 86% 30.01 in - North - - N/A   Overcast
8:00 AM 31 °F 27 °F 77% 30.03 in 6 mi Calm Calm - -   Overcast
8:20 AM 30.2 °F 26.6 °F 86% 30.01 in - North - - N/A   Overcast
8:50 AM 32.0 °F 28.4 °F 87% 30.01 in - North - - N/A   Overcast
9:20 AM 32.0 °F 28.4 °F 87% 30.01 in - North - - N/A   Overcast
9:50 AM 32.0 °F 28.4 °F 87% 30.01 in - North - - N/A   Overcast
10:20 AM 32.0 °F 28.4 °F 87% 30.01 in - North - - N/A   Overcast
10:50 AM 32.0 °F 28.4 °F 87% 30.01 in - North - - N/A   Overcast
11:20 AM 33.8 °F 28.4 °F 81% 30.01 in - North - - N/A   Overcast
11:50 AM 35.6 °F 30.2 °F 81% 30.01 in - North - - N/A   Overcast
12:20 PM 35.6 °F 30.2 °F 81% 30.01 in - North - - N/A   Overcast
12:50 PM 35.6 °F 30.2 °F 81% 30.01 in - North - - N/A   Overcast
1:20 PM 35.6 °F 30.2 °F 81% 30.01 in - North - - N/A   Overcast
1:50 PM 35.6 °F 32.0 °F 87% 29.98 in - North - - N/A   Overcast
2:00 PM 36 °F 32 °F 80% 29.99 in 6 mi Calm Calm - -   Overcast
2:50 PM 35.6 °F 32.0 °F 87% 29.98 in - North - - N/A   Overcast
3:20 PM 35.6 °F 32.0 °F 87% 29.98 in - North - - N/A   Overcast
3:50 PM 37.4 °F 32.0 °F 81% 29.98 in - North - - N/A   Overcast
4:20 PM 37.4 °F 32.0 °F 81% 29.98 in - North - - N/A   Overcast
4:50 PM 35.6 °F 32.0 °F 87% 29.98 in - North - - N/A   Overcast
5:20 PM 35.6 °F 32.0 °F 87% 30.01 in - North - - N/A   Overcast
5:50 PM 35.6 °F 32.0 °F 87% 30.01 in - North - - N/A   Clear
6:20 PM 35.6 °F 32.0 °F 87% 30.01 in - North - - N/A   Overcast
6:50 PM 35.6 °F 32.0 °F 87% 30.04 in - North - - N/A   Overcast
7:20 PM 35.6 °F 32.0 °F 87% 30.04 in - North - - N/A   Overcast
7:50 PM 35.6 °F 32.0 °F 87% 30.04 in - North - - N/A   Overcast
8:00 PM 36 °F 32 °F 78% 30.06 in 6 mi Calm Calm - -   Overcast
8:20 PM 35.6 °F 32.0 °F 87% 30.04 in - North - - N/A   Overcast
8:50 PM 35.6 °F 32.0 °F 87% 30.06 in - North - - N/A   Mostly Cloudy
9:20 PM 35.6 °F 32.0 °F 87% 30.06 in - North - - N/A   Mostly Cloudy
9:50 PM 35.6 °F 32.0 °F 87% 30.09 in - North - - N/A   Mostly Cloudy
10:20 PM 35.6 °F 32.0 °F 87% 30.09 in - North - - N/A   Mostly Cloudy
10:50 PM 33.8 °F 30.2 °F 87% 30.09 in - North - - N/A   Mostly Cloudy
11:20 PM 33.8 °F 30.2 °F 87% 30.09 in - North - - N/A   Mostly Cloudy
11:50 PM 32.0 °F 28.4 °F 87% 30.12 in - North - - N/A   Scattered Clouds